Time,TemperatureF,DewpointF,PressureIn,WindDirection,WindDirectionDegrees,WindSpeedMPH,WindSpeedGustMPH,Humidity,HourlyPrecipIn,Conditions,Clouds,dailyrainin,SoftwareType,DateUTC
2013-06-03 00:02:00,55.0,54.0,-100.00,WNW,295,0.0,0.0,99,-99.99,,,-99.99,,2013-06-03 05:02:00,
2013-06-03 00:12:00,55.0,54.0,-100.00,NW,320,0.0,0.0,99,-99.99,,,-99.99,,2013-06-03 05:12:00,
2013-06-03 00:22:00,55.0,54.0,-100.00,NW,320,0.0,0.0,99,-99.99,,,-99.99,,2013-06-03 05:22:00,
2013-06-03 00:32:00,54.0,54.0,-100.00,WNW,295,0.0,0.0,99,-99.99,,,-99.99,,2013-06-03 05:32:00,
2013-06-03 00:42:00,54.0,54.0,-100.00,West,280,0.0,0.0,99,-99.99,,,-99.99,,2013-06-03 05:42:00,
2013-06-03 00:52:00,54.0,54.0,-100.00,West,280,0.0,0.0,99,-99.99,,,-99.99,,2013-06-03 05:52:00,
2013-06-03 01:02:00,54.0,54.0,-100.00,WNW,295,0.0,0.0,99,-99.99,,,-99.99,,2013-06-03 06:02:00,
2013-06-03 01:12:00,54.0,54.0,-100.00,NNW,330,0.0,0.0,99,-99.99,,,-99.99,,2013-06-03 06:12:00,
2013-06-03 01:22:00,54.0,54.0,-100.00,NNW,330,0.0,0.0,99,-99.99,,,-99.99,,2013-06-03 06:22:00,
2013-06-03 01:32:00,55.0,54.0,-100.00,West,275,0.0,0.0,99,-99.99,,,-99.99,,2013-06-03 06:32:00,
2013-06-03 01:42:00,55.0,54.0,-100.00,WNW,300,0.0,0.0,99,-99.99,,,-99.99,,2013-06-03 06:42:00,
2013-06-03 01:52:00,55.0,54.0,-100.00,WNW,300,0.0,0.0,99,-99.99,,,-99.99,,2013-06-03 06:52:00,
2013-06-03 02:02:00,55.0,54.0,-100.00,WSW,250,0.0,0.0,99,-99.99,,,-99.99,,2013-06-03 07:02:00,
2013-06-03 02:12:00,55.0,54.0,-100.00,WSW,250,0.0,0.0,99,-99.99,,,-99.99,,2013-06-03 07:12:00,
2013-06-03 02:22:00,55.0,54.0,-100.00,WSW,250,0.0,0.0,99,-99.99,,,-99.99,,2013-06-03 07:22:00,
2013-06-03 02:32:00,55.0,55.0,-100.00,West,270,0.0,0.0,99,-99.99,,,-99.99,,2013-06-03 07:32:00,
2013-06-03 02:42:00,55.0,55.0,-100.00,North,10,0.0,0.0,99,-99.99,,,-99.99,,2013-06-03 07:42:00,
2013-06-03 02:52:00,55.0,55.0,-100.00,North,10,0.0,0.0,99,-99.99,,,-99.99,,2013-06-03 07:52:00,
2013-06-03 03:02:00,55.0,54.0,-100.00,South,190,0.0,0.0,99,-99.99,,,-99.99,,2013-06-03 08:02:00,
2013-06-03 03:12:00,55.0,54.0,-100.00,West,260,0.0,0.0,99,-99.99,,,-99.99,,2013-06-03 08:12:00,
2013-06-03 03:22:00,55.0,54.0,-100.00,West,260,0.0,0.0,99,-99.99,,,-99.99,,2013-06-03 08:22:00,
2013-06-03 03:32:00,55.0,54.0,-100.00,South,170,0.0,0.0,99,-99.99,,,-99.99,,2013-06-03 08:32:00,
2013-06-03 03:42:00,54.0,54.0,-100.00,West,280,0.0,0.0,99,-99.99,,,-99.99,,2013-06-03 08:42:00,
2013-06-03 03:52:00,54.0,54.0,-100.00,West,280,0.0,0.0,99,-99.99,,,-99.99,,2013-06-03 08:52:00,
2013-06-03 04:02:00,54.0,54.0,-100.00,ENE,75,0.0,0.0,99,-99.99,,,-99.99,,2013-06-03 09:02:00,
2013-06-03 04:12:00,54.0,54.0,-100.00,East,100,0.0,0.0,99,-99.99,,,-99.99,,2013-06-03 09:12:00,
2013-06-03 04:22:00,54.0,54.0,-100.00,East,100,0.0,0.0,99,-99.99,,,-99.99,,2013-06-03 09:22:00,
2013-06-03 04:33:00,54.0,54.0,-100.00,NNE,25,0.0,0.0,99,-99.99,,,-99.99,,2013-06-03 09:33:00,
2013-06-03 04:42:00,54.0,54.0,-100.00,North,350,0.0,0.0,99,-99.99,,,-99.99,,2013-06-03 09:42:00,
2013-06-03 04:53:00,54.0,54.0,-100.00,North,350,0.0,0.0,99,-99.99,,,-99.99,,2013-06-03 09:53:00,
2013-06-03 05:03:00,53.0,53.0,-100.00,NNE,20,0.0,0.0,99,-99.99,,,-99.99,,2013-06-03 10:03:00,
2013-06-03 05:12:00,53.0,53.0,-100.00,NNW,330,0.0,0.0,99,-99.99,,,-99.99,,2013-06-03 10:12:00,
2013-06-03 05:22:00,53.0,53.0,-100.00,NNW,330,0.0,0.0,99,-99.99,,,-99.99,,2013-06-03 10:22:00,
2013-06-03 05:33:00,53.0,53.0,-100.00,North,350,0.0,0.0,99,-99.99,,,-99.99,,2013-06-03 10:33:00,
2013-06-03 05:42:00,53.0,53.0,-100.00,NW,310,0.0,0.0,99,-99.99,,,-99.99,,2013-06-03 10:42:00,
2013-06-03 05:52:00,53.0,53.0,-100.00,NW,310,0.0,0.0,99,-99.99,,,-99.99,,2013-06-03 10:52:00,
2013-06-03 06:02:00,53.0,53.0,-100.00,NW,310,0.0,0.0,99,-99.99,,,-99.99,,2013-06-03 11:02:00,
2013-06-03 06:12:00,54.0,53.0,-100.00,WNW,285,0.0,0.0,99,-99.99,,,-99.99,,2013-06-03 11:12:00,
2013-06-03 06:22:00,54.0,53.0,-100.00,WNW,285,0.0,0.0,99,-99.99,,,-99.99,,2013-06-03 11:22:00,
2013-06-03 06:32:00,54.0,53.0,-100.00,WNW,285,0.0,0.0,99,-99.99,,,-99.99,,2013-06-03 11:32:00,
2013-06-03 06:42:00,54.0,54.0,-100.00,West,270,0.0,0.0,99,-99.99,,,-99.99,,2013-06-03 11:42:00,
2013-06-03 06:52:00,54.0,54.0,-100.00,West,270,0.0,0.0,99,-99.99,,,-99.99,,2013-06-03 11:52:00,
2013-06-03 07:02:00,54.0,54.0,-100.00,West,275,0.0,0.0,99,-99.99,,,-99.99,,2013-06-03 12:02:00,
2013-06-03 07:12:00,54.0,54.0,-100.00,WSW,250,0.0,0.0,99,-99.99,,,-99.99,,2013-06-03 12:12:00,
2013-06-03 07:22:00,54.0,54.0,-100.00,WSW,250,0.0,0.0,99,-99.99,,,-99.99,,2013-06-03 12:22:00,
2013-06-03 07:32:00,55.0,54.0,-100.00,West,260,0.0,0.0,99,-99.99,,,-99.99,,2013-06-03 12:32:00,
2013-06-03 07:42:00,55.0,55.0,-100.00,West,260,0.0,0.0,99,-99.99,,,-99.99,,2013-06-03 12:42:00,
2013-06-03 07:52:00,55.0,55.0,-100.00,West,260,0.0,0.0,99,-99.99,,,-99.99,,2013-06-03 12:52:00,
2013-06-03 08:02:00,56.0,55.0,-100.00,NW,310,0.0,0.0,99,-99.99,,,-99.99,,2013-06-03 13:02:00,
2013-06-03 08:12:00,56.0,56.0,-100.00,West,275,0.0,0.0,99,-99.99,,,-99.99,,2013-06-03 13:12:00,
2013-06-03 08:22:00,56.0,56.0,-100.00,West,275,0.0,0.0,99,-99.99,,,-99.99,,2013-06-03 13:22:00,
2013-06-03 08:32:00,56.0,56.0,-100.00,West,275,0.0,0.0,99,-99.99,,,-99.99,,2013-06-03 13:32:00,
2013-06-03 08:42:00,57.0,57.0,-100.00,North,5,0.0,0.0,99,-99.99,,,-99.99,,2013-06-03 13:42:00,
2013-06-03 08:53:00,57.0,57.0,-100.00,North,5,0.0,0.0,99,-99.99,,,-99.99,,2013-06-03 13:53:00,
2013-06-03 09:02:00,58.0,57.0,-100.00,North,350,0.0,0.0,95,-99.99,,,-99.99,,2013-06-03 14:02:00,
2013-06-03 09:12:00,59.0,55.0,-100.00,NNE,30,0.0,0.0,86,-99.99,,,-99.99,,2013-06-03 14:12:00,
2013-06-03 09:22:00,59.0,55.0,-100.00,NNE,30,0.0,0.0,86,-99.99,,,-99.99,,2013-06-03 14:22:00,
2013-06-03 09:32:00,60.0,55.0,-100.00,NNE,30,0.0,0.0,81,-99.99,,,-99.99,,2013-06-03 14:32:00,
2013-06-03 09:42:00,62.0,54.0,-100.00,ENE,60,0.0,0.0,75,-99.99,,,-99.99,,2013-06-03 14:42:00,
2013-06-03 09:52:00,62.0,54.0,-100.00,ENE,60,0.0,0.0,75,-99.99,,,-99.99,,2013-06-03 14:52:00,
2013-06-03 10:02:00,64.0,55.0,-100.00,ENE,65,0.0,0.0,71,-99.99,,,-99.99,,2013-06-03 15:02:00,
2013-06-03 10:12:00,64.0,53.0,-100.00,East,95,0.0,0.0,67,-99.99,,,-99.99,,2013-06-03 15:12:00,
2013-06-03 10:22:00,64.0,53.0,-100.00,East,95,0.0,0.0,67,-99.99,,,-99.99,,2013-06-03 15:22:00,
2013-06-03 10:33:00,65.0,53.0,-100.00,East,95,0.0,0.0,65,-99.99,,,-99.99,,2013-06-03 15:33:00,
2013-06-03 10:43:00,63.0,53.0,-100.00,ENE,60,0.0,0.0,69,-99.99,,,-99.99,,2013-06-03 15:43:00,
2013-06-03 10:53:00,63.0,53.0,-100.00,ENE,60,0.0,0.0,69,-99.99,,,-99.99,,2013-06-03 15:53:00,
2013-06-03 11:03:00,63.0,52.0,-100.00,ESE,120,0.0,0.0,67,-99.99,,,-99.99,,2013-06-03 16:03:00,
2013-06-03 11:13:00,65.0,50.0,-100.00,SE,135,0.0,0.0,58,-99.99,,,-99.99,,2013-06-03 16:13:00,
2013-06-03 11:23:00,65.0,50.0,-100.00,SE,135,0.0,0.0,58,-99.99,,,-99.99,,2013-06-03 16:23:00,
2013-06-03 11:33:00,69.0,50.0,-100.00,East,85,0.0,0.0,51,-99.99,,,-99.99,,2013-06-03 16:33:00,
2013-06-03 11:42:00,68.0,49.0,-100.00,ENE,65,0.0,0.0,51,-99.99,,,-99.99,,2013-06-03 16:42:00,
2013-06-03 11:53:00,68.0,49.0,-100.00,ENE,65,0.0,0.0,51,-99.99,,,-99.99,,2013-06-03 16:53:00,
2013-06-03 12:02:00,65.0,47.0,-100.00,NNE,25,0.0,0.0,53,-99.99,,,-99.99,,2013-06-03 17:02:00,
2013-06-03 12:12:00,65.0,48.0,-100.00,East,90,0.0,0.0,53,-99.99,,,-99.99,,2013-06-03 17:12:00,
2013-06-03 12:33:00,66.0,48.0,-100.00,East,100,0.0,0.0,53,-99.99,,,-99.99,,2013-06-03 17:33:00,
2013-06-03 12:42:00,66.0,48.0,-100.00,East,95,0.0,0.0,53,-99.99,,,-99.99,,2013-06-03 17:42:00,
2013-06-03 12:52:00,66.0,48.0,-100.00,East,95,0.0,0.0,53,-99.99,,,-99.99,,2013-06-03 17:52:00,
2013-06-03 13:02:00,69.0,50.0,-100.00,SSE,155,0.0,0.0,51,-99.99,,,-99.99,,2013-06-03 18:02:00,
2013-06-03 13:12:00,69.0,49.0,-100.00,ENE,75,0.0,0.0,48,-99.99,,,-99.99,,2013-06-03 18:12:00,
2013-06-03 13:22:00,69.0,49.0,-100.00,ENE,75,0.0,0.0,48,-99.99,,,-99.99,,2013-06-03 18:22:00,
2013-06-03 13:32:00,69.0,48.0,-100.00,ENE,75,0.0,0.0,47,-99.99,,,-99.99,,2013-06-03 18:32:00,
2013-06-03 13:42:00,69.0,49.0,-100.00,ESE,120,0.0,0.0,48,-99.99,,,-99.99,,2013-06-03 18:42:00,
2013-06-03 13:53:00,69.0,49.0,-100.00,ESE,120,0.0,0.0,48,-99.99,,,-99.99,,2013-06-03 18:53:00,
2013-06-03 14:03:00,70.0,48.0,-100.00,East,100,0.0,0.0,47,-99.99,,,-99.99,,2013-06-03 19:03:00,
2013-06-03 14:12:00,70.0,49.0,-100.00,SSE,160,0.0,0.0,47,-99.99,,,-99.99,,2013-06-03 19:12:00,
2013-06-03 14:22:00,70.0,49.0,-100.00,SSE,160,0.0,0.0,47,-99.99,,,-99.99,,2013-06-03 19:22:00,
2013-06-03 14:32:00,70.0,49.0,-100.00,ESE,115,0.0,0.0,48,-99.99,,,-99.99,,2013-06-03 19:32:00,
2013-06-03 14:42:00,70.0,48.0,-100.00,ENE,70,0.0,0.0,45,-99.99,,,-99.99,,2013-06-03 19:42:00,
2013-06-03 14:53:00,70.0,48.0,-100.00,ENE,70,0.0,0.0,45,-99.99,,,-99.99,,2013-06-03 19:53:00,
2013-06-03 15:02:00,71.0,49.0,-100.00,NE,45,0.0,0.0,47,-99.99,,,-99.99,,2013-06-03 20:02:00,
2013-06-03 15:12:00,71.0,49.0,-100.00,East,80,0.0,0.0,46,-99.99,,,-99.99,,2013-06-03 20:12:00,
2013-06-03 15:22:00,71.0,49.0,-100.00,East,80,0.0,0.0,46,-99.99,,,-99.99,,2013-06-03 20:22:00,
2013-06-03 15:32:00,71.0,49.0,-100.00,East,95,0.0,0.0,47,-99.99,,,-99.99,,2013-06-03 20:32:00,
2013-06-03 15:42:00,69.0,48.0,-100.00,NE,55,0.0,0.0,47,-99.99,,,-99.99,,2013-06-03 20:42:00,
2013-06-03 15:52:00,69.0,48.0,-100.00,NE,55,0.0,0.0,47,-99.99,,,-99.99,,2013-06-03 20:52:00,
2013-06-03 16:02:00,71.0,49.0,-100.00,ENE,60,0.0,0.0,47,-99.99,,,-99.99,,2013-06-03 21:02:00,
2013-06-03 16:12:00,69.0,48.0,-100.00,ESE,105,0.0,0.0,47,-99.99,,,-99.99,,2013-06-03 21:12:00,
2013-06-03 16:22:00,69.0,48.0,-100.00,ESE,105,0.0,0.0,47,-99.99,,,-99.99,,2013-06-03 21:22:00,
2013-06-03 16:33:00,69.0,49.0,-100.00,SSW,200,0.0,0.0,48,-99.99,,,-99.99,,2013-06-03 21:33:00,
2013-06-03 16:43:00,71.0,49.0,-100.00,ESE,105,0.0,0.0,47,-99.99,,,-99.99,,2013-06-03 21:43:00,
2013-06-03 16:53:00,71.0,49.0,-100.00,ESE,105,0.0,0.0,47,-99.99,,,-99.99,,2013-06-03 21:53:00,
2013-06-03 17:03:00,70.0,49.0,-100.00,East,100,0.0,0.0,47,-99.99,,,-99.99,,2013-06-03 22:03:00,
2013-06-03 17:12:00,69.0,48.0,-100.00,SE,140,0.0,0.0,47,-99.99,,,-99.99,,2013-06-03 22:12:00,
2013-06-03 17:22:00,69.0,48.0,-100.00,SE,140,0.0,0.0,47,-99.99,,,-99.99,,2013-06-03 22:22:00,
2013-06-03 17:32:00,69.0,49.0,-100.00,SE,135,0.0,0.0,49,-99.99,,,-99.99,,2013-06-03 22:32:00,
2013-06-03 17:42:00,68.0,48.0,-100.00,East,100,0.0,0.0,49,-99.99,,,-99.99,,2013-06-03 22:42:00,
2013-06-03 17:53:00,68.0,48.0,-100.00,East,100,0.0,0.0,49,-99.99,,,-99.99,,2013-06-03 22:53:00,
2013-06-03 18:02:00,68.0,49.0,-100.00,SE,125,0.0,0.0,51,-99.99,,,-99.99,,2013-06-03 23:02:00,
2013-06-03 18:12:00,68.0,49.0,-100.00,East,100,0.0,0.0,51,-99.99,,,-99.99,,2013-06-03 23:12:00,
2013-06-03 18:22:00,68.0,49.0,-100.00,East,100,0.0,0.0,51,-99.99,,,-99.99,,2013-06-03 23:22:00,
2013-06-03 18:32:00,67.0,49.0,-100.00,East,100,0.0,0.0,52,-99.99,,,-99.99,,2013-06-03 23:32:00,
2013-06-03 18:42:00,67.0,49.0,-100.00,East,100,0.0,0.0,53,-99.99,,,-99.99,,2013-06-03 23:42:00,
2013-06-03 18:52:00,67.0,49.0,-100.00,East,100,0.0,0.0,53,-99.99,,,-99.99,,2013-06-03 23:52:00,
2013-06-03 19:02:00,67.0,50.0,-100.00,South,185,0.0,0.0,54,-99.99,,,-99.99,,2013-06-04 00:02:00,
2013-06-03 19:12:00,66.0,50.0,-100.00,East,95,0.0,0.0,55,-99.99,,,-99.99,,2013-06-04 00:12:00,
2013-06-03 19:22:00,66.0,50.0,-100.00,East,95,0.0,0.0,55,-99.99,,,-99.99,,2013-06-04 00:22:00,
2013-06-03 19:32:00,66.0,50.0,-100.00,SSE,155,0.0,0.0,57,-99.99,,,-99.99,,2013-06-04 00:32:00,
2013-06-03 19:42:00,65.0,51.0,-100.00,South,170,0.0,0.0,59,-99.99,,,-99.99,,2013-06-04 00:42:00,
2013-06-03 19:52:00,65.0,51.0,-100.00,South,170,0.0,0.0,59,-99.99,,,-99.99,,2013-06-04 00:52:00,
2013-06-03 20:02:00,65.0,50.0,-100.00,SE,135,0.0,0.0,59,-99.99,,,-99.99,,2013-06-04 01:02:00,
2013-06-03 20:12:00,65.0,51.0,-100.00,SE,125,0.0,0.0,62,-99.99,,,-99.99,,2013-06-04 01:12:00,
2013-06-03 20:22:00,65.0,51.0,-100.00,SE,125,0.0,0.0,62,-99.99,,,-99.99,,2013-06-04 01:22:00,
2013-06-03 20:32:00,63.0,52.0,-100.00,East,100,0.0,0.0,65,-99.99,,,-99.99,,2013-06-04 01:32:00,
2013-06-03 20:42:00,63.0,52.0,-100.00,ESE,105,0.0,0.0,67,-99.99,,,-99.99,,2013-06-04 01:42:00,
2013-06-03 20:53:00,63.0,52.0,-100.00,ESE,105,0.0,0.0,67,-99.99,,,-99.99,,2013-06-04 01:53:00,
2013-06-03 21:02:00,62.0,52.0,-100.00,East,100,0.0,0.0,70,-99.99,,,-99.99,,2013-06-04 02:02:00,
2013-06-03 21:12:00,61.0,53.0,-100.00,East,100,0.0,0.0,75,-99.99,,,-99.99,,2013-06-04 02:12:00,
2013-06-03 21:22:00,61.0,53.0,-100.00,East,100,0.0,0.0,75,-99.99,,,-99.99,,2013-06-04 02:22:00,
2013-06-03 21:32:00,61.0,54.0,-100.00,East,100,0.0,0.0,80,-99.99,,,-99.99,,2013-06-04 02:32:00,
2013-06-03 21:42:00,60.0,54.0,-100.00,ESE,115,0.0,0.0,82,-99.99,,,-99.99,,2013-06-04 02:42:00,
2013-06-03 21:52:00,60.0,54.0,-100.00,ESE,115,0.0,0.0,82,-99.99,,,-99.99,,2013-06-04 02:52:00,
2013-06-03 22:02:00,59.0,55.0,-100.00,ESE,105,0.0,0.0,86,-99.99,,,-99.99,,2013-06-04 03:02:00,
2013-06-03 22:12:00,58.0,55.0,-100.00,East,100,0.0,0.0,89,-99.99,,,-99.99,,2013-06-04 03:12:00,
2013-06-03 22:22:00,58.0,55.0,-100.00,East,100,0.0,0.0,89,-99.99,,,-99.99,,2013-06-04 03:22:00,
2013-06-03 22:32:00,57.0,56.0,-100.00,East,100,0.0,0.0,95,-99.99,,,-99.99,,2013-06-04 03:32:00,
2013-06-03 22:43:00,56.0,56.0,-100.00,ESE,110,0.0,0.0,99,-99.99,,,-99.99,,2013-06-04 03:43:00,
2013-06-03 22:54:00,56.0,56.0,-100.00,ESE,110,0.0,0.0,99,-99.99,,,-99.99,,2013-06-04 03:54:00,
2013-06-03 23:03:00,56.0,56.0,-100.00,East,100,0.0,0.0,99,-99.99,,,-99.99,,2013-06-04 04:03:00,
2013-06-03 23:13:00,56.0,56.0,-100.00,ESE,105,0.0,0.0,99,-99.99,,,-99.99,,2013-06-04 04:13:00,
2013-06-03 23:23:00,56.0,56.0,-100.00,ESE,105,0.0,0.0,99,-99.99,,,-99.99,,2013-06-04 04:23:00,
2013-06-03 23:33:00,56.0,56.0,-100.00,ESE,105,0.0,0.0,99,-99.99,,,-99.99,,2013-06-04 04:33:00,
2013-06-03 23:42:00,56.0,55.0,-100.00,East,85,0.0,0.0,99,-99.99,,,-99.99,,2013-06-04 04:42:00,
2013-06-03 23:53:00,56.0,55.0,-100.00,East,85,0.0,0.0,99,-99.99,,,-99.99,,2013-06-04 04:53:00,